START_TIME,STEP,MOV.,M15,t_acc.,M20,t_acc.
1979-07-12 12:00:44.280 ,0,0,0.,24.0,0.,24.0
1979-07-12 12:01:08.280 ,1,1,0.,24.0,0.,24.0
1979-07-12 12:01:32.280 ,1,0,0.,24.0,0.,24.0
1979-07-12 12:01:56.280 ,2,1,0.,24.0,0.,24.0
1979-07-12 12:02:20.280 ,2,0,0.,24.0,0.,24.0
1979-07-12 12:02:44.280 ,3,1,0.,24.0,0.,24.0
1979-07-12 12:03:08.280 ,3,0,0.,24.0,0.,24.0
1979-07-12 12:03:32.280 ,4,1,0.,24.0,0.,24.0
1979-07-12 12:03:56.280 ,4,0,0.,24.0,0.,24.0
1979-07-12 12:04:20.280 ,5,1,1.,24.0,0.,24.0
1979-07-12 12:04:44.280 ,5,0,0.,24.0,0.,24.0
1979-07-12 12:05:08.280 ,6,1,0.,24.0,0.,24.0
1979-07-12 12:05:32.280 ,6,0,0.,24.0,0.,24.0
1979-07-12 12:05:56.280 ,7,1,0.,24.0,0.,24.0
1979-07-12 12:06:20.280 ,7,0,0.,24.0,0.,24.0
1979-07-12 12:06:44.280 ,7,1,0.,24.0,0.,24.0
1979-07-12 12:07:08.280 ,7,0,0.,24.0,0.,24.0
1979-07-12 12:07:32.280 ,6,1,0.,24.0,0.,24.0
1979-07-12 12:07:56.280 ,6,0,0.,24.0,0.,24.0
1979-07-12 12:08:20.280 ,5,1,0.,24.0,0.,24.0
1979-07-12 12:08:44.280 ,5,0,0.,24.0,0.,24.0
1979-07-12 12:09:08.280 ,4,1,0.,24.0,0.,24.0
1979-07-12 12:09:32.280 ,4,0,0.,24.0,0.,24.0
1979-07-12 12:09:56.280 ,3,1,0.,24.0,0.,24.0
1979-07-12 12:10:20.280 ,3,0,0.,24.0,0.,24.0
1979-07-12 12:10:44.280 ,2,1,0.,24.0,0.,24.0
1979-07-12 12:11:08.280 ,2,0,0.,24.0,0.,24.0
1979-07-12 12:11:32.280 ,1,1,0.,24.0,0.,24.0
1979-07-12 12:11:56.280 ,1,0,0.,24.0,0.,24.0
1979-07-12 12:12:20.280 ,0,1,0.,24.0,0.,24.0
1979-07-12 12:12:44.280 ,0,0,0.,24.0,0.,24.0
1979-07-12 12:13:08.280 ,0,1,0.,24.0,0.,24.0
1979-07-12 12:13:32.280 ,0,0,0.,24.0,0.,24.0
1979-07-12 12:13:56.280 ,1,1,0.,24.0,0.,24.0
1979-07-12 12:14:20.280 ,1,0,0.,24.0,0.,24.0
1979-07-12 12:14:44.280 ,2,1,0.,24.0,0.,24.0
1979-07-12 12:15:08.280 ,2,0,0.,24.0,0.,24.0
1979-07-12 12:15:32.280 ,3,1,0.,24.0,0.,24.0
1979-07-12 12:15:56.280 ,3,0,0.,24.0,0.,24.0
1979-07-12 12:16:20.280 ,4,1,0.,24.0,0.,24.0
1979-07-12 12:16:44.280 ,4,0,0.,24.0,0.,24.0
1979-07-12 12:17:08.280 ,5,1,0.,24.0,0.,24.0
1979-07-12 12:17:32.280 ,5,0,0.,24.0,0.,24.0
1979-07-12 12:17:56.280 ,6,1,0.,24.0,0.,24.0
1979-07-12 12:18:20.280 ,6,0,0.,24.0,0.,24.0
1979-07-12 12:18:44.280 ,7,0,0.,24.0,0.,24.0
1979-07-12 12:19:08.280 ,7,0,0.,24.0,0.,24.0
1979-07-12 12:19:32.280 ,3,1,0.,24.0,0.,24.0
1979-07-12 12:19:56.280 ,0,1,1.,24.0,0.,24.0
1979-07-12 12:20:20.280 ,4,1,0.,24.0,0.,24.0
1979-07-12 12:20:44.280 ,7,1,0.,24.0,0.,24.0
1979-07-12 12:21:08.280 ,3,1,0.,24.0,0.,24.0
1979-07-12 12:21:32.280 ,0,1,0.,24.0,0.,24.0
1979-07-12 12:21:56.280 ,4,1,0.,24.0,0.,24.0
1979-07-12 12:22:20.280 ,7,1,0.,24.0,0.,24.0
1979-07-12 12:22:44.280 ,3,1,0.,24.0,0.,24.0
1979-07-12 12:23:08.280 ,0,1,0.,24.0,0.,24.0
1979-07-12 12:23:32.280 ,4,1,0.,24.0,0.,24.0
1979-07-12 12:23:56.280 ,7,1,0.,24.0,0.,24.0
1979-07-12 12:24:20.280 ,3,1,0.,24.0,0.,24.0
1979-07-12 12:24:44.280 ,0,1,0.,24.0,0.,24.0
1979-07-12 12:25:08.280 ,4,1,1.,24.0,0.,24.0
1979-07-12 12:25:32.280 ,0,0,,0,,0
1979-07-12 12:25:56.280 ,0,0,0.,24.0,0.,24.0
1979-07-12 12:26:20.280 ,0,1,0.,24.0,0.,24.0
1979-07-12 12:26:44.280 ,4,1,1.,24.0,0.,24.0
1979-07-12 12:27:08.280 ,7,1,0.,24.0,0.,24.0
1979-07-12 12:27:32.280 ,3,1,0.,24.0,0.,24.0
1979-07-12 12:27:56.280 ,0,1,0.,24.0,0.,24.0
1979-07-12 12:28:20.280 ,4,1,0.,24.0,0.,24.0
1979-07-12 12:28:44.280 ,7,1,0.,24.0,0.,24.0
1979-07-12 12:29:08.280 ,3,1,0.,24.0,0.,24.0
1979-07-12 12:29:32.280 ,0,1,0.,24.0,0.,24.0
1979-07-12 12:29:56.280 ,0,0,0.,24.0,0.,24.0
1979-07-12 12:30:20.280 ,0,0,0.,24.0,0.,24.0
1979-07-12 12:30:44.280 ,5,1,0.,24.0,0.,24.0
1979-07-12 12:31:08.280 ,5,0,0.,24.0,0.,24.0
1979-07-12 12:31:32.280 ,4,1,0.,24.0,0.,24.0
1979-07-12 12:31:56.280 ,4,0,1.,24.0,0.,24.0
1979-07-12 12:32:20.280 ,3,1,0.,24.0,0.,24.0
1979-07-12 12:32:44.280 ,3,0,0.,24.0,0.,24.0
1979-07-12 12:33:08.280 ,2,1,0.,24.0,0.,24.0
1979-07-12 12:33:32.280 ,2,0,0.,24.0,0.,24.0
1979-07-12 12:33:56.280 ,1,1,0.,24.0,0.,24.0
1979-07-12 12:34:20.280 ,1,0,0.,24.0,0.,24.0
1979-07-12 12:34:44.280 ,0,1,0.,24.0,0.,24.0
1979-07-12 12:35:08.280 ,0,0,1.,24.0,0.,24.0
1979-07-12 12:35:32.280 ,0,1,2.,24.0,0.,24.0
1979-07-12 12:35:56.280 ,0,0,0.,24.0,0.,24.0
1979-07-12 12:36:20.280 ,1,1,1.,24.0,0.,24.0
1979-07-12 12:36:44.280 ,1,0,0.,24.0,0.,24.0
1979-07-12 12:37:08.280 ,2,1,0.,24.0,0.,24.0
1979-07-12 12:37:32.280 ,0,0,0.,24.0,0.,24.0
1979-07-12 12:37:56.280 ,3,1,0.,24.0,0.,24.0
1979-07-12 12:38:20.280 ,3,0,0.,24.0,0.,24.0
1979-07-12 12:38:44.280 ,4,1,1.,24.0,0.,24.0
1979-07-12 12:39:08.280 ,4,0,0.,24.0,0.,24.0
1979-07-12 12:39:32.280 ,5,1,0.,24.0,0.,24.0
1979-07-12 12:39:56.280 ,5,0,0.,24.0,0.,24.0
1979-07-12 12:40:20.280 ,6,1,0.,24.0,0.,24.0
1979-07-12 12:40:44.280 ,6,0,0.,24.0,0.,24.0
1979-07-12 12:41:08.280 ,7,1,0.,24.0,0.,24.0
1979-07-12 12:41:32.280 ,7,0,0.,24.0,0.,24.0
1979-07-12 12:41:56.280 ,7,1,0.,24.0,0.,24.0
1979-07-12 12:42:20.280 ,7,0,0.,24.0,0.,24.0
1979-07-12 12:42:44.280 ,6,1,0.,24.0,0.,24.0
1979-07-12 12:43:08.280 ,6,0,0.,24.0,0.,24.0
1979-07-12 12:43:32.280 ,5,1,0.,24.0,0.,24.0
1979-07-12 12:43:56.280 ,5,0,1.,24.0,0.,24.0
1979-07-12 12:44:20.280 ,4,1,0.,24.0,0.,24.0
1979-07-12 12:44:44.280 ,4,0,0.,24.0,0.,24.0
1979-07-12 12:45:08.280 ,3,1,0.,24.0,0.,24.0
1979-07-12 12:45:32.280 ,3,0,0.,24.0,0.,24.0
1979-07-12 12:45:56.280 ,2,1,0.,24.0,0.,24.0
1979-07-12 12:46:20.280 ,2,0,0.,24.0,0.,24.0
1979-07-12 12:46:44.280 ,1,1,0.,24.0,0.,24.0
1979-07-12 12:47:08.280 ,1,0,0.,24.0,0.,24.0
1979-07-12 12:47:32.280 ,0,1,0.,24.0,0.,24.0
1979-07-12 12:47:56.280 ,0,0,0.,24.0,0.,24.0
1979-07-12 12:48:20.280 ,0,1,0.,24.0,0.,24.0
1979-07-12 12:48:44.280 ,0,0,0.,24.0,0.,24.0
1979-07-12 12:49:08.280 ,1,1,0.,24.0,0.,24.0
1979-07-12 12:49:32.280 ,1,0,0.,24.0,0.,24.0
1979-07-12 12:49:56.280 ,2,1,0.,24.0,0.,24.0
1979-07-12 12:50:20.280 ,2,0,0.,24.0,0.,24.0
1979-07-12 12:50:44.280 ,3,1,0.,24.0,0.,24.0
1979-07-12 12:51:08.280 ,3,0,0.,24.0,0.,24.0
1979-07-12 12:51:32.280 ,4,1,0.,24.0,0.,24.0
1979-07-12 12:51:56.280 ,4,0,0.,24.0,0.,24.0
1979-07-12 12:52:20.280 ,5,1,0.,24.0,0.,24.0
1979-07-12 12:52:44.280 ,5,0,0.,24.0,0.,24.0
1979-07-12 12:53:08.280 ,6,1,0.,24.0,0.,24.0
1979-07-12 12:53:32.280 ,6,0,0.,24.0,0.,24.0
1979-07-12 12:53:56.280 ,7,1,0.,24.0,0.,24.0
1979-07-12 12:54:20.280 ,7,0,0.,24.0,0.,24.0
1979-07-12 12:54:44.280 ,7,1,0.,24.0,0.,24.0
1979-07-12 12:55:08.280 ,7,0,0.,24.0,0.,24.0
1979-07-12 12:55:32.280 ,6,1,0.,24.0,0.,24.0
1979-07-12 12:55:56.280 ,6,0,0.,24.0,0.,24.0
1979-07-12 12:56:20.280 ,5,1,0.,24.0,0.,24.0
1979-07-12 12:56:44.280 ,5,0,0.,24.0,0.,24.0
1979-07-12 12:57:08.280 ,4,1,0.,24.0,0.,24.0
1979-07-12 12:57:32.280 ,4,0,0.,24.0,0.,24.0
1979-07-12 12:57:56.280 ,3,1,0.,24.0,0.,24.0
1979-07-12 12:58:20.280 ,3,0,0.,24.0,0.,24.0
1979-07-12 12:58:44.280 ,2,1,0.,24.0,0.,24.0
1979-07-12 12:59:08.280 ,2,0,0.,24.0,0.,24.0
1979-07-12 12:59:32.280 ,1,1,0.,24.0,0.,24.0
1979-07-12 12:59:56.280 ,1,0,0.,24.0,0.,24.0
1979-07-12 13:00:20.280 ,0,1,0.,24.0,0.,24.0
1979-07-12 13:00:44.280 ,0,0,0.,24.0,0.,24.0
1979-07-12 13:01:08.280 ,0,1,0.,24.0,0.,24.0
1979-07-12 13:01:32.280 ,0,0,0.,24.0,0.,24.0
1979-07-12 13:01:56.280 ,1,1,0.,24.0,0.,24.0
1979-07-12 13:02:20.280 ,1,0,0.,24.0,0.,24.0
1979-07-12 13:02:44.280 ,2,1,0.,24.0,0.,24.0
1979-07-12 13:03:08.280 ,2,0,0.,24.0,0.,24.0
1979-07-12 13:03:32.280 ,3,1,0.,24.0,0.,24.0
1979-07-12 13:03:56.280 ,3,0,0.,24.0,0.,24.0
1979-07-12 13:04:20.280 ,4,1,0.,24.0,0.,24.0
1979-07-12 13:04:44.280 ,4,0,0.,24.0,0.,24.0
1979-07-12 13:05:08.280 ,5,1,0.,24.0,0.,24.0
1979-07-12 13:05:32.280 ,5,0,0.,24.0,0.,24.0
1979-07-12 13:05:56.280 ,6,1,0.,24.0,0.,24.0
1979-07-12 13:06:20.280 ,6,0,0.,24.0,0.,24.0
1979-07-12 13:06:44.280 ,7,0,0.,24.0,0.,24.0
1979-07-12 13:07:08.280 ,7,0,0.,24.0,0.,24.0
1979-07-12 13:07:32.280 ,3,1,0.,24.0,0.,24.0
1979-07-12 13:07:56.280 ,0,1,0.,24.0,0.,24.0
1979-07-12 13:08:20.280 ,4,1,0.,24.0,0.,24.0
1979-07-12 13:08:44.280 ,7,1,0.,24.0,0.,24.0
1979-07-12 13:09:08.280 ,3,1,0.,24.0,0.,24.0
1979-07-12 13:09:32.280 ,0,1,0.,24.0,0.,24.0
1979-07-12 13:09:56.280 ,4,1,1.,24.0,0.,24.0
1979-07-12 13:10:20.280 ,0,0,0.,24.0,0.,24.0
1979-07-12 13:10:44.280 ,3,1,0.,24.0,0.,24.0
1979-07-12 13:11:08.280 ,0,1,0.,24.0,0.,24.0
1979-07-12 13:11:32.280 ,4,1,0.,24.0,0.,24.0
1979-07-12 13:11:56.280 ,7,1,0.,24.0,0.,24.0
1979-07-12 13:12:20.280 ,3,1,0.,24.0,0.,24.0
1979-07-12 13:12:44.280 ,0,1,0.,24.0,0.,24.0
1979-07-12 13:13:08.280 ,4,1,0.,24.0,0.,24.0
1979-07-12 13:13:32.280 ,7,1,0.,24.0,0.,24.0
1979-07-12 13:13:56.280 ,3,1,0.,24.0,0.,24.0
1979-07-12 13:14:20.280 ,0,0,,0,,0
1979-07-12 13:14:44.280 ,0,0,0.,24.0,0.,24.0
1979-07-12 13:15:08.280 ,7,1,0.,24.0,0.,24.0
1979-07-12 13:15:32.280 ,3,1,0.,24.0,0.,24.0
1979-07-12 13:15:56.280 ,0,1,0.,24.0,0.,24.0
1979-07-12 13:16:20.280 ,4,1,0.,24.0,0.,24.0
1979-07-12 13:16:44.280 ,7,1,0.,24.0,0.,24.0
1979-07-12 13:17:08.280 ,3,1,0.,24.0,0.,24.0
1979-07-12 13:17:32.280 ,0,1,0.,24.0,0.,24.0
1979-07-12 13:17:56.280 ,0,0,0.,24.0,0.,24.0
1979-07-12 13:18:20.280 ,0,0,0.,24.0,0.,24.0
1979-07-12 13:18:44.280 ,5,1,0.,24.0,0.,24.0
1979-07-12 13:19:08.280 ,5,0,0.,24.0,0.,24.0
1979-07-12 13:19:32.280 ,4,1,0.,24.0,0.,24.0
1979-07-12 13:19:56.280 ,4,0,0.,24.0,0.,24.0
1979-07-12 13:20:20.280 ,3,1,0.,24.0,0.,24.0
1979-07-12 13:20:44.280 ,3,0,0.,24.0,0.,24.0
1979-07-12 13:21:08.280 ,2,1,0.,24.0,0.,24.0
1979-07-12 13:21:32.280 ,2,0,0.,24.0,0.,24.0
1979-07-12 13:21:56.280 ,1,1,0.,24.0,0.,24.0
1979-07-12 13:22:20.280 ,1,0,1.,24.0,0.,24.0
1979-07-12 13:22:44.280 ,0,1,0.,24.0,0.,24.0
1979-07-12 13:23:08.280 ,0,0,0.,24.0,0.,24.0
1979-07-12 13:23:32.280 ,0,1,0.,24.0,0.,24.0
1979-07-12 13:23:56.280 ,0,0,0.,24.0,0.,24.0
1979-07-12 13:24:20.280 ,1,1,0.,24.0,0.,24.0
1979-07-12 13:24:44.280 ,1,0,0.,24.0,0.,24.0
1979-07-12 13:25:08.280 ,2,1,0.,24.0,0.,24.0
1979-07-12 13:25:32.280 ,2,0,0.,24.0,0.,24.0
1979-07-12 13:25:56.280 ,3,1,0.,24.0,0.,24.0
1979-07-12 13:26:20.280 ,3,0,0.,24.0,0.,24.0
1979-07-12 13:26:44.280 ,4,1,0.,24.0,0.,24.0
1979-07-12 13:27:08.280 ,4,0,0.,24.0,0.,24.0
1979-07-12 13:27:32.280 ,5,1,0.,24.0,0.,24.0
1979-07-12 13:27:56.280 ,5,0,0.,24.0,0.,24.0
1979-07-12 13:28:20.280 ,6,1,0.,24.0,0.,24.0
1979-07-12 13:28:44.280 ,6,0,0.,24.0,0.,24.0
1979-07-12 13:29:08.280 ,7,1,0.,24.0,0.,24.0
1979-07-12 13:29:32.280 ,7,0,0.,24.0,0.,24.0
1979-07-12 13:29:56.280 ,7,1,0.,24.0,0.,24.0
1979-07-12 13:30:20.280 ,7,0,0.,24.0,0.,24.0
1979-07-12 13:30:44.280 ,6,1,0.,24.0,0.,24.0
1979-07-12 13:31:08.280 ,6,0,0.,24.0,0.,24.0
1979-07-12 13:31:32.280 ,5,1,0.,24.0,0.,24.0
1979-07-12 13:31:56.280 ,5,0,0.,24.0,0.,24.0
1979-07-12 13:32:20.280 ,4,1,0.,24.0,0.,24.0
1979-07-12 13:32:44.280 ,4,0,0.,24.0,0.,24.0
1979-07-12 13:33:08.280 ,3,1,0.,24.0,0.,24.0
1979-07-12 13:33:32.280 ,3,0,0.,24.0,0.,24.0
1979-07-12 13:33:56.280 ,2,1,0.,24.0,0.,24.0
1979-07-12 13:34:20.280 ,2,0,0.,24.0,0.,24.0
1979-07-12 13:34:44.280 ,1,1,0.,24.0,0.,24.0
1979-07-12 13:35:08.280 ,1,0,0.,24.0,0.,24.0
1979-07-12 13:35:32.280 ,0,1,0.,24.0,0.,24.0
1979-07-12 13:35:56.280 ,0,0,0.,24.0,0.,24.0
1979-07-12 13:36:20.280 ,0,1,0.,24.0,0.,24.0
1979-07-12 13:36:44.280 ,0,0,1.,24.0,0.,24.0
1979-07-12 13:37:08.280 ,1,1,0.,24.0,0.,24.0
1979-07-12 13:38:44.280 ,0,0,0.,24.0,0.,24.0
1979-07-12 13:39:08.280 ,0,0,0.,24.0,0.,24.0
1979-07-12 13:39:32.280 ,4,1,0.,24.0,0.,24.0
1979-07-12 13:39:56.280 ,4,0,0.,24.0,0.,24.0
1979-07-12 13:40:20.280 ,5,1,0.,24.0,0.,24.0
1979-07-12 13:40:44.280 ,5,0,0.,24.0,0.,24.0
1979-07-12 13:41:08.280 ,6,1,0.,24.0,0.,24.0
1979-07-12 13:41:32.280 ,6,0,0.,24.0,0.,24.0
1979-07-12 13:41:56.280 ,7,1,0.,24.0,0.,24.0
1979-07-12 13:42:20.280 ,7,0,0.,24.0,0.,24.0
1979-07-12 13:42:44.280 ,7,1,0.,24.0,0.,24.0
1979-07-12 13:43:08.280 ,7,0,0.,24.0,0.,24.0
1979-07-12 13:43:32.280 ,6,1,0.,24.0,0.,24.0
1979-07-12 13:43:56.280 ,6,0,0.,24.0,0.,24.0
1979-07-12 13:44:20.280 ,5,1,0.,24.0,0.,24.0
1979-07-12 13:44:44.280 ,5,0,0.,24.0,0.,24.0
1979-07-12 13:45:08.280 ,4,1,0.,24.0,0.,24.0
1979-07-12 13:45:32.280 ,4,0,0.,24.0,0.,24.0
1979-07-12 13:45:56.280 ,3,1,1.,24.0,0.,24.0
1979-07-12 13:46:20.280 ,3,0,0.,24.0,0.,24.0
1979-07-12 13:46:44.280 ,0,0,,0,,0
1979-07-12 13:47:08.280 ,0,0,0.,24.0,0.,24.0
1979-07-12 13:47:32.280 ,0,0,0.,24.0,0.,24.0
1979-07-12 13:47:56.280 ,0,0,0.,24.0,0.,24.0
1979-07-12 13:48:20.280 ,0,1,0.,24.0,0.,24.0
1979-07-12 13:48:44.280 ,0,0,0.,24.0,0.,24.0
1979-07-12 13:49:08.280 ,0,1,0.,24.0,0.,24.0
1979-07-12 13:49:32.280 ,0,0,0.,24.0,0.,24.0
1979-07-12 13:49:56.280 ,1,1,0.,24.0,0.,24.0
1979-07-12 13:50:20.280 ,1,0,0.,24.0,0.,24.0
1979-07-12 13:50:44.280 ,2,1,0.,24.0,0.,24.0
1979-07-12 13:51:08.280 ,2,0,0.,24.0,0.,24.0
1979-07-12 13:51:32.280 ,3,1,0.,24.0,0.,24.0
1979-07-12 13:51:56.280 ,3,0,0.,24.0,0.,24.0
1979-07-12 13:52:20.280 ,4,1,0.,24.0,0.,24.0
1979-07-12 13:52:44.280 ,4,0,0.,24.0,0.,24.0
1979-07-12 13:53:08.280 ,5,1,0.,24.0,0.,24.0
1979-07-12 13:53:32.280 ,5,0,0.,24.0,0.,24.0
1979-07-12 13:53:56.280 ,6,1,0.,24.0,0.,24.0
1979-07-12 13:54:20.280 ,6,0,0.,24.0,0.,24.0
1979-07-12 13:54:44.280 ,7,0,0.,24.0,0.,24.0
1979-07-12 13:55:08.280 ,7,0,0.,24.0,0.,24.0
1979-07-12 13:55:32.280 ,3,1,0.,24.0,0.,24.0
1979-07-12 13:55:56.280 ,0,1,0.,24.0,0.,24.0
1979-07-12 13:56:20.280 ,4,1,1.,24.0,0.,24.0
1979-07-12 13:56:44.280 ,7,1,0.,24.0,0.,24.0
1979-07-12 13:57:08.280 ,3,1,0.,24.0,0.,24.0
1979-07-12 13:57:32.280 ,0,1,0.,24.0,0.,24.0
1979-07-12 13:57:56.280 ,4,1,0.,24.0,0.,24.0
1979-07-12 13:58:20.280 ,7,1,1.,24.0,0.,24.0
1979-07-12 13:58:44.280 ,3,1,0.,24.0,0.,24.0
1979-07-12 13:59:08.280 ,0,1,0.,24.0,0.,24.0
1979-07-12 13:59:32.280 ,4,1,0.,24.0,0.,24.0
1979-07-12 13:59:56.280 ,7,1,0.,24.0,0.,24.0
1979-07-12 14:00:20.280 ,3,1,0.,24.0,0.,24.0
1979-07-12 14:00:44.280 ,0,1,0.,24.0,0.,24.0
1979-07-12 14:01:08.280 ,4,1,0.,24.0,0.,24.0
1979-07-12 14:01:32.280 ,7,1,0.,24.0,0.,24.0
1979-07-12 14:01:56.280 ,3,1,0.,24.0,0.,24.0
1979-07-12 14:02:20.280 ,0,1,0.,24.0,0.,24.0
1979-07-12 14:02:44.280 ,4,1,0.,24.0,0.,24.0
1979-07-12 14:03:08.280 ,7,1,0.,24.0,0.,24.0
1979-07-12 14:03:32.280 ,3,1,0.,24.0,0.,24.0
1979-07-12 14:03:56.280 ,0,1,0.,24.0,0.,24.0
1979-07-12 14:04:20.280 ,4,1,0.,24.0,0.,24.0
1979-07-12 14:04:44.280 ,7,1,0.,24.0,0.,24.0
1979-07-12 14:05:08.280 ,3,1,0.,24.0,0.,24.0
1979-07-12 14:05:32.280 ,0,1,0.,24.0,0.,24.0
1979-07-12 14:05:56.280 ,0,0,0.,24.0,0.,24.0
1979-07-12 14:06:20.280 ,0,0,0.,24.0,0.,24.0
1979-07-12 14:06:44.280 ,5,1,0.,24.0,0.,24.0
1979-07-12 14:07:08.280 ,5,0,0.,24.0,0.,24.0
1979-07-12 14:07:32.280 ,4,1,0.,24.0,0.,24.0
1979-07-12 14:07:56.280 ,4,0,0.,24.0,0.,24.0
1979-07-12 14:08:20.280 ,3,1,0.,24.0,0.,24.0
1979-07-12 14:08:44.280 ,3,0,0.,24.0,0.,24.0
1979-07-12 14:09:08.280 ,2,1,0.,24.0,0.,24.0
1979-07-12 14:09:32.280 ,2,0,1.,24.0,0.,24.0
1979-07-12 14:09:56.280 ,1,1,0.,24.0,0.,24.0
1979-07-12 14:10:20.280 ,1,0,0.,24.0,0.,24.0
1979-07-12 14:10:44.280 ,0,1,0.,24.0,0.,24.0
1979-07-12 14:11:08.280 ,0,0,0.,24.0,0.,24.0
1979-07-12 14:11:32.280 ,0,1,0.,24.0,0.,24.0
1979-07-12 14:11:56.280 ,0,0,0.,24.0,0.,24.0
1979-07-12 14:12:20.280 ,1,1,0.,24.0,0.,24.0
1979-07-12 14:12:44.280 ,1,0,0.,24.0,0.,24.0
1979-07-12 14:13:08.280 ,2,1,0.,24.0,0.,24.0
1979-07-12 14:13:32.280 ,2,0,1.,24.0,0.,24.0
1979-07-12 14:13:56.280 ,3,1,0.,24.0,0.,24.0
1979-07-12 14:14:20.280 ,3,0,1.,24.0,0.,24.0
1979-07-12 14:14:44.280 ,4,1,0.,24.0,0.,24.0
1979-07-12 14:15:08.280 ,4,0,0.,24.0,0.,24.0
1979-07-12 14:15:32.280 ,5,1,0.,24.0,0.,24.0
1979-07-12 14:15:56.280 ,5,0,0.,24.0,0.,24.0
1979-07-12 14:16:20.280 ,6,1,0.,24.0,0.,24.0
1979-07-12 14:16:44.280 ,6,0,0.,24.0,0.,24.0
1979-07-12 14:17:08.280 ,7,1,0.,24.0,0.,24.0
1979-07-12 14:17:32.280 ,7,0,0.,24.0,0.,24.0
1979-07-12 14:17:56.280 ,7,1,0.,24.0,0.,24.0
1979-07-12 14:18:20.280 ,7,0,0.,24.0,0.,24.0
1979-07-12 14:18:44.280 ,6,1,0.,24.0,0.,24.0
1979-07-12 14:19:08.280 ,6,0,0.,24.0,0.,24.0
1979-07-12 14:19:32.280 ,5,1,0.,24.0,0.,24.0
1979-07-12 14:19:56.280 ,5,0,0.,24.0,0.,24.0
1979-07-12 14:20:20.280 ,4,1,0.,24.0,0.,24.0
1979-07-12 14:20:44.280 ,4,0,0.,24.0,0.,24.0
1979-07-12 14:21:08.280 ,3,1,0.,24.0,0.,24.0
1979-07-12 14:21:32.280 ,3,0,0.,24.0,0.,24.0
1979-07-12 14:21:56.280 ,2,1,0.,24.0,0.,24.0
1979-07-12 14:22:20.280 ,2,0,0.,24.0,0.,24.0
1979-07-12 14:22:44.280 ,1,1,0.,24.0,0.,24.0
1979-07-12 14:23:08.280 ,1,0,0.,24.0,0.,24.0
1979-07-12 14:23:32.280 ,0,1,0.,24.0,0.,24.0
1979-07-12 14:23:56.280 ,0,0,0.,24.0,0.,24.0
1979-07-12 14:24:20.280 ,0,1,0.,24.0,0.,24.0
1979-07-12 14:24:44.280 ,0,0,0.,24.0,0.,24.0
1979-07-12 14:25:08.280 ,1,1,0.,24.0,0.,24.0
1979-07-12 14:25:32.280 ,1,0,0.,24.0,0.,24.0
1979-07-12 14:25:56.280 ,2,1,0.,24.0,0.,24.0
1979-07-12 14:26:20.280 ,2,0,0.,24.0,0.,24.0
1979-07-12 14:26:44.280 ,3,1,0.,24.0,0.,24.0
1979-07-12 14:27:08.280 ,3,0,0.,24.0,0.,24.0
1979-07-12 14:27:32.280 ,4,1,0.,24.0,0.,24.0
1979-07-12 14:27:56.280 ,4,0,0.,24.0,0.,24.0
1979-07-12 14:28:20.280 ,5,1,0.,24.0,0.,24.0
1979-07-12 14:28:44.280 ,5,0,0.,24.0,0.,24.0
1979-07-12 14:29:08.280 ,6,1,0.,24.0,0.,24.0
1979-07-12 14:29:32.280 ,6,0,0.,24.0,0.,24.0
1979-07-12 14:29:56.280 ,7,1,0.,24.0,0.,24.0
1979-07-12 14:30:20.280 ,7,0,0.,24.0,0.,24.0
1979-07-12 14:30:44.280 ,7,1,0.,24.0,0.,24.0
1979-07-12 14:31:08.280 ,7,0,0.,24.0,0.,24.0
1979-07-12 14:31:32.280 ,6,1,1.,24.0,0.,24.0
1979-07-12 14:31:56.280 ,6,0,0.,24.0,0.,24.0
1979-07-12 14:32:20.280 ,5,1,0.,24.0,0.,24.0
1979-07-12 14:32:44.280 ,5,0,0.,24.0,0.,24.0
1979-07-12 14:33:08.280 ,4,1,0.,24.0,0.,24.0
1979-07-12 14:33:32.280 ,4,0,2.,24.0,0.,24.0
1979-07-12 14:33:56.280 ,3,1,0.,24.0,0.,24.0
1979-07-12 14:34:20.280 ,3,0,0.,24.0,0.,24.0
1979-07-12 14:34:44.280 ,2,1,0.,24.0,0.,24.0
1979-07-12 14:35:08.280 ,2,0,0.,24.0,0.,24.0
1979-07-12 14:35:32.280 ,1,1,0.,24.0,0.,24.0
1979-07-12 14:35:56.280 ,1,0,0.,24.0,0.,24.0
1979-07-12 14:36:20.280 ,0,1,0.,24.0,0.,24.0
1979-07-12 14:36:44.280 ,0,0,0.,24.0,0.,24.0
1979-07-12 14:37:08.280 ,0,1,0.,24.0,0.,24.0
1979-07-12 14:37:32.280 ,0,0,0.,24.0,0.,24.0
1979-07-12 14:37:56.280 ,1,1,0.,24.0,0.,24.0
1979-07-12 14:38:20.280 ,1,0,0.,24.0,0.,24.0
1979-07-12 14:38:44.280 ,2,1,0.,24.0,0.,24.0
1979-07-12 14:39:08.280 ,2,0,0.,24.0,0.,24.0
1979-07-12 14:39:32.280 ,3,1,0.,24.0,0.,24.0
1979-07-12 14:39:56.280 ,3,0,0.,24.0,0.,24.0
1979-07-12 14:40:20.280 ,4,1,0.,24.0,0.,24.0
1979-07-12 14:40:44.280 ,4,0,1.,24.0,0.,24.0
1979-07-12 14:41:08.280 ,5,1,0.,24.0,0.,24.0
1979-07-12 14:41:32.280 ,5,0,0.,24.0,0.,24.0
1979-07-12 14:41:56.280 ,6,1,0.,24.0,0.,24.0
1979-07-12 14:42:20.280 ,6,0,0.,24.0,0.,24.0
1979-07-12 14:42:44.280 ,7,0,0.,24.0,0.,24.0
1979-07-12 14:43:08.280 ,7,0,0.,24.0,0.,24.0
1979-07-12 14:43:32.280 ,3,1,0.,24.0,0.,24.0
1979-07-12 14:43:56.280 ,0,1,0.,24.0,0.,24.0
1979-07-12 14:44:20.280 ,4,1,0.,24.0,0.,24.0
1979-07-12 14:44:44.280 ,7,1,0.,24.0,0.,24.0
1979-07-12 14:45:08.280 ,3,1,1.,24.0,0.,24.0
1979-07-12 14:45:32.280 ,0,1,0.,24.0,0.,24.0
1979-07-12 14:45:56.280 ,4,1,0.,24.0,0.,24.0
1979-07-12 14:46:20.280 ,7,1,0.,24.0,0.,24.0
1979-07-12 14:46:44.280 ,3,1,0.,24.0,0.,24.0
1979-07-12 14:47:08.280 ,0,1,0.,24.0,0.,24.0
1979-07-12 14:47:32.280 ,4,1,0.,24.0,0.,24.0
1979-07-12 14:47:56.280 ,7,1,0.,24.0,0.,24.0
1979-07-12 14:48:20.280 ,3,1,0.,24.0,0.,24.0
1979-07-12 14:48:44.280 ,0,1,0.,24.0,0.,24.0
1979-07-12 14:49:08.280 ,4,1,0.,24.0,0.,24.0
1979-07-12 14:49:32.280 ,7,1,0.,24.0,0.,24.0
1979-07-12 14:49:56.280 ,3,1,0.,24.0,0.,24.0
1979-07-12 14:50:20.280 ,0,1,0.,24.0,0.,24.0
1979-07-12 14:50:44.280 ,4,1,0.,24.0,0.,24.0
1979-07-12 14:51:08.280 ,7,1,0.,24.0,0.,24.0
1979-07-12 14:51:32.280 ,3,1,1.,24.0,0.,24.0
1979-07-12 14:51:56.280 ,0,1,0.,24.0,0.,24.0
1979-07-12 14:52:20.280 ,4,1,1.,24.0,0.,24.0
1979-07-12 14:52:44.280 ,7,1,0.,24.0,0.,24.0
1979-07-12 14:53:08.280 ,3,1,0.,24.0,0.,24.0
1979-07-12 14:53:32.280 ,0,1,0.,24.0,0.,24.0
1979-07-12 14:53:56.280 ,0,0,0.,24.0,0.,24.0
1979-07-12 14:54:20.280 ,0,0,0.,24.0,0.,24.0
1979-07-12 14:54:44.280 ,5,1,0.,24.0,0.,24.0
1979-07-12 14:55:08.280 ,5,0,0.,24.0,0.,24.0
1979-07-12 14:55:32.280 ,4,1,0.,24.0,0.,24.0
1979-07-12 14:55:56.280 ,4,0,0.,24.0,0.,24.0
1979-07-12 14:56:20.280 ,3,1,0.,24.0,0.,24.0
1979-07-12 14:56:44.280 ,3,0,0.,24.0,0.,24.0
1979-07-12 14:57:08.280 ,2,1,0.,24.0,0.,24.0
1979-07-12 14:57:32.280 ,2,0,0.,24.0,0.,24.0
1979-07-12 14:57:56.280 ,1,1,0.,24.0,0.,24.0
1979-07-12 14:58:20.280 ,1,0,0.,24.0,0.,24.0
1979-07-12 14:58:44.280 ,0,1,0.,24.0,0.,24.0
1979-07-12 14:59:08.280 ,0,0,0.,24.0,0.,24.0
1979-07-12 14:59:32.280 ,0,1,0.,24.0,0.,24.0
1979-07-12 14:59:56.280 ,0,0,0.,24.0,0.,24.0
1979-07-12 15:00:20.280 ,1,1,0.,24.0,0.,24.0
